Theta_e
349 350 348 352 353 353 352 352 351 349 348 352 353 353 352 351 353 351 351 353 352 352 351 353 353 353 350 350 350 352 350 349 350 351 350 350 350 349 350 349 349 348 348
349 347 348 351 352 352 352 352 352 351 351 351 353 353 352 350 352 352 352 352 351 352 352 351 351 351 351 350 349 352 352 352 351 351 351 350 350 350 350 349 349 349 349
350 346 348 350 352 352 351 351 351 353 353 352 352 352 353 354 354 353 352 352 352 352 352 352 351 352 352 353 351 352 351 351 351 350 348 347 350 350 349 349 349 349 349
348 345 350 348 350 352 351 351 352 353 352 353 352 353 353 353 354 353 352 351 352 351 352 352 352 352 351 349 350 351 352 350 350 348 346 347 348 350 350 349 346 349 349
343 342 351 346 349 352 352 352 352 352 352 353 353 353 352 350 353 354 349 349 351 351 350 350 350 350 350 346 346 345 347 348 345 345 346 347 347 350 349 349 348 349 347
343 346 349 350 352 352 352 352 352 352 350 352 353 353 353 354 352 352 340 347 352 352 341 341 342 347 348 348 346 345 345 346 346 338 344 345 344 350 349 349 349 348 348
350 350 349 351 352 352 353 353 352 352 352 352 352 353 353 353 351 352 350 346 349 348 344 344 343 341 339 341 345 345 344 345 343 339 337 346 345 348 349 350 350 349 347
351 349 347 348 352 352 353 352 351 352 352 351 352 352 350 353 353 351 347 346 352 351 347 341 342 343 342 342 344 345 343 344 345 339 343 346 346 349 348 349 349 349 348
346 343 344 349 351 352 353 352 346 351 352 347 350 347 348 348 351 348 351 349 352 351 353 347 341 341 341 343 344 344 345 344 343 343 343 345 346 350 350 348 348 349 347
346 343 345 347 345 347 351 353 346 352 346 346 342 342 347 347 352 352 348 349 352 351 351 349 346 344 343 343 344 345 344 344 340 340 340 342 344 349 349 348 345 347 347
348 346 345 342 342 343 350 351 350 344 342 347 345 339 339 341 344 344 347 341 350 352 351 351 350 349 346 341 340 346 345 343 342 339 339 340 341 348 348 349 347 346 347
347 346 339 336 340 344 345 350 346 341 344 339 336 337 339 342 346 348 348 348 349 353 352 351 349 348 346 343 345 342 344 344 343 341 338 338 340 341 347 349 348 345 345
346 343 339 336 343 344 344 344 336 335 337 335 338 342 346 347 347 348 348 347 348 349 347 347 336 342 338 343 345 342 339 344 343 343 338 337 339 341 342 347 347 346 347
346 339 334 339 345 344 346 340 336 335 337 339 344 347 348 350 350 348 349 349 348 349 348 347 344 342 340 344 345 342 337 345 343 344 339 338 340 341 342 347 346 347 347
345 342 341 343 346 346 345 342 340 339 343 346 347 348 349 349 350 350 347 347 348 349 343 343 343 345 347 346 346 345 344 345 345 344 343 338 339 342 344 346 345 346 347
343 343 345 344 347 347 349 347 345 347 348 348 349 349 350 350 349 350 349 348 346 346 347 343 345 346 349 348 347 347 346 346 345 345 343 341 341 343 342 343 340 343 346
342 343 344 346 346 347 348 349 350 350 351 350 348 350 349 349 351 350 351 350 350 349 347 348 344 347 349 348 346 346 346 347 346 345 344 342 342 343 342 344 343 343 344
342 342 344 345 346 347 348 350 350 347 347 349 348 348 349 352 352 350 352 353 352 351 350 350 348 348 348 347 345 347 347 347 347 347 345 344 343 345 345 344 345 345 344
343 342 343 344 345 346 348 350 349 346 348 350 348 349 350 351 350 352 352 353 353 351 350 349 348 347 348 347 346 343 347 348 348 349 348 346 346 348 347 347 346 345 345
343 343 343 344 344 347 349 350 348 348 347 350 349 348 351 351 349 350 354 352 350 349 350 347 347 347 346 345 347 349 349 349 346 348 345 346 347 349 348 345 345 345 346
344 344 344 348 349 348 349 348 345 345 348 350 349 349 350 351 350 354 355 354 350 349 349 350 348 347 347 349 350 349 349 349 347 349 345 338 348 348 348 345 345 344 344
344 344 345 349 350 349 348 345 344 347 349 350 350 349 351 353 353 355 353 352 350 353 352 351 350 350 350 349 349 343 343 348 350 350 349 346 349 349 350 349 347 345 344
345 345 345 347 348 346 345 344 348 349 351 351 349 350 352 354 355 357 353 354 351 351 351 351 351 350 351 350 348 344 342 344 346 349 348 346 348 349 348 348 348 348 346
345 345 346 347 348 346 345 345 346 348 352 351 350 350 352 355 356 357 355 353 350 351 352 353 351 350 351 350 350 347 348 346 342 345 349 349 349 348 349 348 346 346 346
345 346 347 348 348 347 346 346 346 347 352 352 351 351 352 356 357 357 353 351 348 352 351 352 353 353 352 353 353 353 353 348 345 344 345 348 349 349 350 349 347 345 344
344 344 345 346 347 346 346 347 348 349 351 351 351 352 353 355 357 356 355 354 349 351 350 353 353 353 352 352 349 346 351 351 348 344 342 344 347 349 349 348 348 346 344
Wind_Speed
13 17 15 16 16 18 19 21 22 22 23 23 23 23 23 24 24 22 20 18 18 16 16 14 15 15 15 15 17 17 18 16 14 13 15 16 15 15 15 15 17 19 19
18 19 16 17 16 17 19 20 21 22 22 22 22 22 23 23 22 22 20 18 16 15 16 14 14 14 15 14 15 16 16 15 14 12 12 13 14 14 15 15 16 17 18
21 19 19 17 17 17 19 20 20 20 22 23 22 22 21 20 20 20 18 16 14 14 15 13 12 13 12 13 14 13 14 14 14 13 13 16 14 13 15 15 15 16 16
22 20 18 17 17 17 18 18 19 19 20 20 21 21 20 19 17 18 16 14 14 13 15 13 12 11 11 11 12 13 13 12 12 13 15 14 13 13 13 14 15 14 15
20 20 17 18 17 17 17 17 18 18 17 17 18 17 18 18 14 15 15 12 13 14 13 12 12 11 10 10 10 9 9 6 10 13 13 14 14 13 13 14 14 13 14
20 18 17 16 15 16 16 16 16 17 16 16 16 15 15 14 12 10 13 12 10 11 13 11 10 9 8 9 7 5 5 7 10 12 13 13 14 13 14 14 13 13 13
23 20 18 15 14 14 14 15 15 14 14 13 13 13 11 10 11 9 8 10 8 8 9 11 9 9 9 7 5 5 6 10 15 12 14 15 16 15 13 13 14 14 13
21 20 17 14 13 12 12 14 14 12 14 12 12 12 10 8 7 6 6 8 7 6 6 6 7 8 8 7 5 5 7 12 15 14 17 15 15 14 12 11 12 12 12
20 19 16 14 12 11 11 12 13 12 12 11 10 10 9 8 6 6 5 5 5 4 4 5 5 4 5 5 5 6 7 13 12 13 14 14 14 13 12 11 10 10 11
20 19 18 15 12 11 11 11 12 11 11 10 9 8 7 7 5 4 4 3 3 3 3 3 2 3 3 3 4 5 9 9 12 13 11 11 13 12 12 13 11 11 11
18 18 17 15 13 12 13 11 11 11 11 10 8 7 7 6 6 5 4 4 4 4 4 4 3 3 3 3 4 5 9 12 11 11 12 10 10 12 13 12 12 11 11
18 20 18 16 14 14 13 13 12 11 11 10 9 8 6 5 5 6 6 6 5 8 7 6 4 5 5 5 6 9 7 13 11 12 13 11 7 10 13 12 13 12 12
23 21 20 17 16 16 15 14 12 12 12 10 9 8 6 6 8 10 6 6 7 8 10 8 8 9 8 8 6 11 11 9 13 14 17 12 8 9 13 13 13 14 13
22 23 21 19 18 17 14 14 13 13 11 11 10 9 9 6 5 7 11 11 10 9 10 11 13 14 13 11 8 11 13 10 14 10 19 14 8 9 13 13 13 13 13
20 24 22 20 19 16 14 13 13 12 11 9 9 10 10 8 8 6 5 8 11 10 4 9 12 15 15 11 10 12 14 13 13 12 15 16 12 9 12 13 14 14 12
24 26 23 23 20 18 16 14 14 12 10 11 12 13 12 11 8 7 6 5 4 9 8 10 7 7 8 13 10 9 8 12 12 14 11 17 16 10 10 13 15 14 14
26 27 27 25 22 20 18 15 14 12 12 14 15 14 13 13 12 7 7 9 8 9 10 9 11 8 8 10 9 8 8 11 11 13 12 16 17 13 12 12 16 16 16
26 27 27 28 26 24 20 14 12 7 8 9 14 16 13 11 9 9 9 10 10 7 6 7 9 11 9 8 7 6 7 9 11 10 10 12 15 14 12 9 14 18 17
30 29 30 28 27 27 22 18 14 11 8 8 9 11 14 8 9 8 8 5 6 2 3 6 10 10 11 11 9 7 6 7 10 8 8 12 12 10 11 11 9 16 19
33 30 29 29 29 27 23 20 16 16 11 6 12 11 13 9 8 6 4 2 1 3 6 8 10 9 10 8 6 6 6 8 7 9 9 12 8 9 9 12 11 11 17
30 31 31 29 28 27 25 21 18 18 12 9 11 13 11 7 4 5 4 2 2 4 7 8 10 9 9 9 5 2 1 5 8 8 7 10 9 7 8 12 12 10 12
35 35 34 33 29 27 25 23 18 14 9 10 12 12 12 9 5 4 3 4 3 6 7 7 8 9 7 9 3 3 3 2 3 5 5 8 8 8 9 10 12 12 11
30 37 37 38 34 28 23 21 14 10 10 11 14 11 12 10 8 6 6 6 5 5 6 7 7 5 5 10 4 2 2 2 3 2 2 6 7 8 8 10 11 11 12
35 36 37 40 33 29 24 20 19 14 9 9 15 16 15 12 10 9 7 7 6 6 7 5 5 5 5 7 7 14 9 2 2 3 4 5 8 10 11 11 11 10 11
30 37 39 36 34 31 27 23 20 18 13 12 8 9 15 14 10 11 9 8 8 8 5 4 6 4 4 4 6 5 8 7 4 3 2 3 7 11 13 13 11 12 11
24 31 36 35 35 33 30 26 23 21 17 15 13 15 17 16 13 12 11 11 8 8 8 8 7 5 5 5 4 3 7 5 9 4 2 3 6 8 14 15 16 15 13
Wind_Direction
146 131 124 115 108 102 102 105 108 114 115 113 114 112 109 109 109 108 110 108 105 107 107 111 110 109 105 106 110 110 110 106 103 103 105 110 110 112 115 112 114 113 116
145 137 132 122 111 105 104 104 108 112 112 112 110 109 104 105 108 106 103 102 108 109 107 108 107 108 111 110 114 117 114 108 108 111 115 108 110 116 116 117 117 115 115
144 143 137 126 116 112 107 107 108 109 111 112 112 108 105 106 106 103 101 98 101 104 104 106 108 110 112 114 117 121 117 114 113 116 119 119 116 119 123 123 123 122 123
148 145 135 131 120 117 112 110 111 109 110 113 114 112 110 106 106 107 103 100 101 109 106 107 111 110 111 116 124 134 129 108 113 127 125 122 127 125 123 127 127 125 127
151 149 139 133 129 120 116 115 115 115 116 118 114 112 108 109 106 108 108 105 101 105 110 111 112 110 112 115 117 131 135 132 136 136 135 134 130 135 130 131 129 131 133
152 149 146 133 131 126 122 117 118 124 129 129 123 117 115 113 114 111 112 115 110 111 110 108 113 118 124 132 131 144 164 155 154 147 151 143 139 135 137 135 138 133 136
154 152 144 136 132 128 125 124 123 125 124 125 129 124 124 126 122 119 107 111 109 107 110 117 117 121 125 129 123 126 156 168 164 149 152 142 140 142 145 137 140 140 138
156 150 147 141 137 135 134 130 129 130 128 129 137 138 142 137 135 140 131 122 124 124 118 117 121 120 123 138 139 131 157 161 162 154 150 152 150 141 141 140 138 140 142
162 159 156 150 147 146 142 142 145 144 138 141 148 146 151 149 157 158 152 140 143 154 148 135 134 126 124 124 147 160 167 170 160 168 163 159 151 148 149 149 147 148 149
168 168 166 160 159 155 153 158 156 161 154 165 162 159 162 165 180 182 186 184 179 190 201 175 183 179 165 154 140 149 168 191 175 169 171 173 166 157 160 158 159 158 155
173 176 171 167 169 168 174 170 173 170 165 176 168 167 174 177 188 197 209 214 222 228 233 235 218 235 209 187 186 173 176 175 179 180 174 165 176 173 175 168 162 166 163
184 183 179 178 176 182 182 182 187 176 182 184 182 183 190 208 224 240 241 248 252 240 245 238 242 245 238 232 217 202 205 187 191 185 181 175 176 191 178 175 169 171 170
189 187 187 187 186 191 191 194 195 192 195 193 200 202 216 242 253 254 255 260 261 243 233 219 204 230 235 243 247 215 212 223 189 185 186 186 180 198 181 178 174 176 169
196 193 192 194 195 198 199 205 206 206 203 211 217 226 240 258 281 257 244 263 261 257 241 232 223 225 223 244 242 218 216 222 195 203 195 194 193 183 185 179 179 181 177
203 198 196 194 196 194 200 207 207 211 213 221 230 239 251 254 253 265 267 275 269 233 263 240 238 232 227 223 228 230 216 212 203 203 206 206 202 197 195 193 182 181 184
204 202 199 200 202 202 203 208 213 219 228 242 244 249 258 253 248 266 271 285 308 247 262 249 238 236 226 216 231 223 222 213 222 212 218 212 210 215 211 210 195 187 183
209 207 207 205 209 211 214 218 230 237 250 255 257 252 261 243 251 283 274 292 305 277 268 243 230 220 198 204 223 222 223 216 230 241 245 212 211 219 224 215 201 196 190
209 208 210 209 212 216 218 215 231 220 242 270 248 248 239 247 247 276 288 302 314 291 261 235 205 192 194 207 214 229 233 227 237 243 221 212 216 219 221 215 204 200 200
210 208 211 214 217 217 215 217 222 228 264 269 233 240 228 239 252 274 299 305 305 312 158 164 174 194 199 219 245 240 239 235 234 245 229 225 225 216 216 213 205 204 205
211 212 210 214 217 212 210 212 228 235 242 258 233 244 231 266 256 257 287 319 30 120 141 142 170 188 210 218 222 227 238 226 242 233 246 217 236 223 214 211 209 213 209
207 206 205 207 207 207 204 213 224 218 235 246 241 240 256 251 236 239 228 230 183 143 122 141 149 166 177 180 188 209 250 250 244 233 234 227 221 215 210 211 218 217 212
203 205 205 204 202 202 211 210 206 214 241 260 245 245 237 231 213 210 221 186 189 182 166 161 167 166 178 185 159 85 7 321 284 258 234 201 212 215 219 222 223 226 221
191 201 205 206 207 204 205 206 206 213 243 239 232 226 218 227 218 201 210 205 203 199 194 189 195 192 170 195 207 141 70 265 332 314 233 226 225 225 221 230 232 230 227
200 204 205 204 205 204 207 210 212 216 225 239 235 243 221 223 218 200 209 208 207 209 209 216 199 199 186 199 244 251 277 283 180 337 297 272 246 233 226 227 228 230 224
191 198 202 206 206 205 209 215 215 218 239 255 237 236 222 224 221 208 207 205 211 204 208 202 201 208 206 206 224 259 234 221 207 156 249 259 247 245 236 231 229 227 222
201 197 202 204 207 207 210 215 214 218 229 238 244 241 238 232 224 215 215 217 214 215 219 217 224 231 231 237 250 267 225 207 218 189 175 230 234 236 234 238 232 225 215